Location: Unspecified
(35.6961°N, 0.0000°E)
Time: 23:16:32
(UTC+00:00)

Vanguard 2 Rocket - Pass Details

Date: 03 June 2019
Orbit: 554 x 3326 km, 32.9° (Epoch: 20 June)

Event Time Altitude Azimuth Distance (km) Brightness Sun altitude
Rises 09:54:51 0° 283° (WNW) 6,635 11.0 60.1°
Reaches altitude 10° 10:01:03 10° 271° (W) 5,145 10.6 61.3°
Maximum altitude 10:10:36 22° 228° (SW) 3,324 9.9 63.1°
Drops below altitude 10° 10:17:18 10° 181° (S) 3,455 10.2 64.3°
Sets 10:20:28 0° 165° (SSE) 4,049 10.4 64.9°
